Clear Lake, IA

1:49 PM CDT on September 25, 2016 (GMT -0500)
Mason City Municipal

Weather History for KMCW - January, 2012

Change the Weather History Date:

Sunday, January 22, 2012

  Actual Average Record
Temperature  
Mean Temperature 26 °F 16 °F  
Max Temperature 33 °F 25 °F 51 °F (2002)
Min Temperature 18 °F 7 °F -31 °F (1930)
Degree Days  
Heating Degree Days 39 49  
Month to date heating degree days 964 1078  
Since 1 July heating degree days 3616 4167  
Cooling Degree Days 0 0  
Month to date cooling degree days 0 0  
Year to date cooling degree days 0 0  
Moisture  
Dew Point 24 °F    
Average Humidity 92    
Maximum Humidity 100    
Minimum Humidity 84    
Precipitation  
Precipitation 0.03 in 0.03 in 1.12 in (1982)
Month to date precipitation 0.42 0.57  
Year to date precipitation 0.42 0.57  
Snow  
Snow T in 0.40 in 12.00 in (1982)
Month to date snowfall 5.7 7.5  
Since 1 July snowfall 11.1 21.5  
Snow Depth 6.00 in    
Sea Level Pressure  
Sea Level Pressure 29.59 in    
Wind  
Wind Speed 16 mph (SE)    
Max Wind Speed 25 mph    
Max Gust Speed 32 mph    
Visibility 2 miles    
Events Fog , Rain , Snow    
T = Trace of Precipitation, MM = Missing Value Source: NWS Daily Summary

Daily Weather History Graph

Daily Weather History Graph

Search for Another Location

Airport or City:

Trip Planner

Search our weather history database for the weather conditions in past years. The results will help you decide how hot, cold, wet, or windy it might be!

Date:

Astronomy

Jan. 22, 2012 Rise Set
Actual Time 7:38 AM CST 5:11 PM CST
Civil Twilight 7:07 AM CST 5:42 PM CST
Nautical Twilight 6:32 AM CST 6:17 PM CST
Astronomical Twilight 5:58 AM CST 6:51 PM CST
Moon 6:55 AM CST (1/22) 4:55 PM CST (1/22)
Length of Visible Light 10h 35m
Length of Day
9h 33m
Waning Crescent, 0% of the Moon is Illuminated
Jan 22
Waning Crescent
Jan 23
New
Jan 30
First Quarter
Feb 7
Full
Feb 14
Last Quarter

Hourly Weather History & Observations

Time (CST) Temp. Windchill Dew Point Humidity Pressure Visibility Wind Dir Wind Speed Gust Speed Precip Events Conditions
12:28 AM 19.4 °F 2.8 °F 17.6 °F 93% 29.77 in 5.0 mi SE 21.9 mph 31.1 mph N/A   Overcast
12:53 AM 19.9 °F 2.8 °F 16.0 °F 85% 29.82 in 5.0 mi SE 24.2 mph 32.2 mph N/A   Overcast
1:53 AM 19.0 °F 2.7 °F 15.1 °F 85% 29.80 in 6.0 mi SE 20.7 mph 27.6 mph N/A   Overcast
2:34 AM 19.4 °F 3.2 °F 15.8 °F 86% 29.72 in 6.0 mi SE 20.7 mph - N/A   Overcast
2:53 AM 18.0 °F 0.9 °F 15.1 °F 88% 29.76 in 6.0 mi SE 21.9 mph 27.6 mph N/A   Overcast
3:38 AM 17.6 °F 0.5 °F 15.8 °F 93% 29.68 in 2.5 mi SE 21.9 mph - N/A   Overcast
3:53 AM 18.0 °F 0.9 °F 15.1 °F 88% 29.72 in 1.8 mi SE 21.9 mph - N/A   Overcast
4:48 AM 19.4 °F 5.0 °F 15.8 °F 86% 29.67 in 2.5 mi SE 16.1 mph - N/A   Overcast
4:53 AM 19.0 °F 4.5 °F 16.0 °F 88% 29.71 in 2.5 mi SE 16.1 mph - N/A   Overcast
5:09 AM 19.4 °F 4.5 °F 15.8 °F 86% 29.65 in 3.0 mi SE 17.3 mph - N/A   Overcast
5:20 AM 19.4 °F 4.1 °F 15.8 °F 86% 29.64 in 2.0 mi SE 18.4 mph 27.6 mph N/A   Overcast
5:34 AM 19.4 °F 4.5 °F 15.8 °F 86% 29.64 in 1.8 mi SE 17.3 mph 25.3 mph N/A   Overcast
5:53 AM 19.9 °F 4.8 °F 17.1 °F 89% 29.69 in 1.8 mi SE 18.4 mph - N/A   Overcast
6:27 AM 19.4 °F 3.6 °F 17.6 °F 93% 29.64 in 2.0 mi SE 19.6 mph - N/A   Overcast
6:53 AM 21.0 °F 5.4 °F 19.0 °F 92% 29.67 in 2.0 mi SE 20.7 mph - N/A   Overcast
7:02 AM 21.2 °F 4.9 °F 19.4 °F 93% 29.62 in 1.8 mi SSE 23.0 mph 26.5 mph N/A   Overcast
7:31 AM 21.2 °F 5.6 °F 19.4 °F 93% 29.61 in 1.2 mi SE 20.7 mph 31.1 mph 0.00 in Rain Light Freezing Rain
7:43 AM 23.0 °F 7.6 °F 19.4 °F 86% 29.60 in 0.5 mi SE 21.9 mph 27.6 mph 0.00 in Fog , Rain Light Freezing Rain
7:53 AM 23.0 °F 7.6 °F 21.0 °F 92% 29.65 in 0.8 mi SSE 21.9 mph 27.6 mph 0.00 in Rain Light Freezing Rain
8:53 AM 24.1 °F 9.0 °F 21.9 °F 91% 29.62 in 0.8 mi SE 21.9 mph - 0.00 in Rain Light Freezing Rain
9:12 AM 24.8 °F 10.7 °F 23.0 °F 93% 29.58 in 0.5 mi SSE 19.6 mph 28.8 mph 0.00 in Fog , Snow Light Snow
9:53 AM 26.6 °F 13.1 °F 24.8 °F 93% 29.58 in 0.8 mi SSE 19.6 mph 26.5 mph N/A   Overcast
10:02 AM 26.6 °F 13.4 °F 24.8 °F 93% 29.58 in 1.0 mi SE 18.4 mph 25.3 mph 0.00 in   Overcast
10:22 AM 26.6 °F 12.0 °F 24.8 °F 93% 29.58 in 1.2 mi SSE 23.0 mph - 0.00 in Rain Light Freezing Rain
10:53 AM 28.0 °F 14.6 °F 26.1 °F 92% 29.61 in 1.2 mi SSE 20.7 mph 26.5 mph 0.00 in Rain Light Freezing Rain
11:00 AM 28.4 °F 16.2 °F 26.6 °F 93% 29.57 in 1.2 mi SE 17.3 mph 26.5 mph 0.00 in Rain Light Freezing Rain
11:53 AM 28.9 °F 17.7 °F 27.0 °F 92% 29.58 in 1.5 mi SE 15.0 mph - 0.00 in Rain Light Freezing Rain
12:33 PM 28.4 °F 16.2 °F 28.4 °F 100% 29.53 in 1.8 mi SSE 17.3 mph - 0.00 in   Overcast
12:53 PM 30.0 °F 17.5 °F 28.0 °F 92% 29.55 in 1.5 mi SSE 19.6 mph 24.2 mph 0.00 in   Overcast
1:53 PM 30.9 °F 19.4 °F 28.9 °F 92% 29.54 in 1.2 mi SE 17.3 mph - N/A   Overcast
2:07 PM 30.2 °F 18.5 °F 30.2 °F 100% 29.50 in 1.2 mi SSE 17.3 mph - 0.00 in Rain Light Freezing Rain
2:53 PM 32.0 °F 21.6 °F 30.2 °F 93% 29.50 in 1.2 mi SSE 15.0 mph - N/A Rain Light Freezing Rain
3:44 PM 32.0 °F 22.1 °F 30.2 °F 93% 29.51 in 1.5 mi SSE 13.8 mph - 0.00 in   Overcast
3:53 PM 32.0 °F 21.6 °F 30.9 °F 96% 29.53 in 1.5 mi SE 15.0 mph - 0.00 in   Overcast
4:53 PM 32.0 °F 22.5 °F 30.9 °F 96% 29.53 in 1.0 mi SE 12.7 mph - 0.00 in   Overcast
5:32 PM 32.0 °F 22.1 °F 30.2 °F 93% 29.50 in 2.0 mi SSE 13.8 mph - 0.00 in   Overcast
5:53 PM 32.0 °F 23.6 °F 30.2 °F 93% 29.50 in 2.0 mi SE 10.4 mph - N/A   Overcast
6:53 PM 32.0 °F 23.6 °F 30.9 °F 96% 29.52 in 2.0 mi SSE 10.4 mph - N/A   Overcast
7:53 PM 32.0 °F 23.6 °F 30.9 °F 96% 29.51 in 2.5 mi SE 10.4 mph - N/A   Overcast
8:53 PM 32.0 °F 26.4 °F 32.0 °F 100% 29.50 in 2.0 mi SE 5.8 mph - N/A   Overcast
9:32 PM 32.0 °F - 30.2 °F 93% 29.46 in 1.8 mi Calm Calm - 0.00 in   Overcast
9:53 PM 33.1 °F - 32.0 °F 96% 29.48 in 1.8 mi Calm Calm - 0.00 in Rain Light Rain
10:53 PM 32.0 °F 25.6 °F 30.9 °F 96% 29.44 in 1.5 mi NNE 6.9 mph - 0.01 in   Overcast
11:19 PM 32.0 °F 25.6 °F 30.2 °F 93% 29.40 in 2.0 mi NNE 6.9 mph - N/A   Overcast
11:30 PM 32.0 °F 24.8 °F 30.2 °F 93% 29.40 in 1.2 mi NNE 8.1 mph - 0.00 in Snow Light Snow
11:53 PM 32.0 °F 25.6 °F 30.9 °F 96% 29.43 in 1.2 mi North 6.9 mph - 0.01 in Snow Light Snow